Gunnison, CO

10:53 PM MDT on June 26, 2017 (GMT -0600)
Gunnison County

Weather History for KGUC - January, 2013

Change the Weather History Date:

Saturday, January 12, 2013

  Actual Average Record
Temperature  
Mean Temperature -8 °F -  
Max Temperature 6 °F 24 °F 42 °F (2007)
Min Temperature -22 °F 0 °F -25 °F (2016)
Degree Days  
Heating Degree Days 73    
Moisture  
Dew Point -19 °F    
Average Humidity 54    
Maximum Humidity 100    
Minimum Humidity 21    
Precipitation  
Precipitation 0.00 in - - ()
Sea Level Pressure  
Sea Level Pressure 29.83 in    
Wind  
Wind Speed 2 mph (NE)    
Max Wind Speed 8 mph    
Max Gust Speed -    
Visibility 9 miles    
Events      
Averages and records for this station are not official NWS values.
T = Trace of Precipitation, MM = Missing Value Source: NWS Daily Summary

Daily Weather History Graph

Daily Weather History Graph

Search for Another Location

Airport or City:

Trip Planner

Search our weather history database for the weather conditions in past years. The results will help you decide how hot, cold, wet, or windy it might be!

Date:

Astronomy

Jan. 12, 2013 Rise Set
Actual Time 7:24 AM MST 5:08 PM MST
Civil Twilight 6:55 AM MST 5:37 PM MST
Nautical Twilight 6:22 AM MST 6:09 PM MST
Astronomical Twilight 5:50 AM MST 6:41 PM MST
Moon 7:46 AM MST (1/12) 6:38 PM MST (1/12)
Length of Visible Light 10h 41m
Length of Day
9h 43m
New Moon, 1% of the Moon is Illuminated
Jan 12
New Moon
Jan 18
First Quarter
Jan 26
Full
Feb 3
Last Quarter
Feb 10
New

Hourly Weather History & Observations

Time (MST) Temp. Windchill Dew Point Humidity Pressure Visibility Wind Dir Wind Speed Gust Speed Precip Events Conditions
12:15 AM -0.4 °F -10.4 °F -7.6 °F 72% 29.80 in 10.0 mi NNW 4.6 mph - N/A   Partly Cloudy
12:35 AM -2.2 °F - -11.2 °F 66% 29.80 in 8.0 mi Calm Calm - N/A   Clear
12:55 AM -2.2 °F - -2.2 °F 100% 29.80 in 6.0 mi Calm Calm - N/A   Partly Cloudy
1:15 AM -5.8 °F - -20.2 °F 50% 29.80 in 6.0 mi Calm Calm - N/A   Partly Cloudy
1:35 AM -5.8 °F -21.2 °F -5.8 °F 100% 29.81 in 10.0 mi North 8.1 mph - N/A   Clear
1:55 AM -5.8 °F -18.4 °F -16.6 °F 60% 29.81 in 10.0 mi NE 5.8 mph - N/A   Clear
2:15 AM -5.8 °F -19.9 °F -11.2 °F 77% 29.81 in 10.0 mi NNW 6.9 mph - N/A   Clear
2:35 AM -7.6 °F - -13.0 °F 77% 29.81 in 10.0 mi Calm Calm - N/A   Clear
2:55 AM -7.6 °F - -20.2 °F 54% 29.80 in 10.0 mi Calm Calm - N/A   Clear
3:15 AM -9.4 °F -24.3 °F -9.4 °F 100% 29.80 in 10.0 mi North 6.9 mph - N/A   Clear
3:35 AM -9.4 °F -20.9 °F -23.8 °F 49% 29.80 in 10.0 mi North 4.6 mph - N/A   Clear
3:55 AM -11.2 °F - -23.8 °F 54% 29.79 in 10.0 mi Calm Calm - N/A   Clear
4:15 AM -14.8 °F - - N/A% 29.78 in 10.0 mi Calm Calm - N/A   Clear
4:35 AM -14.8 °F - - N/A% 29.78 in 10.0 mi Calm Calm - N/A   Clear
4:55 AM -14.8 °F - - N/A% 29.79 in 10.0 mi Calm Calm - N/A   Clear
5:15 AM -14.8 °F - - N/A% 29.79 in 10.0 mi Calm Calm - N/A   Clear
5:35 AM -16.6 °F - - N/A% 29.80 in 9.0 mi Calm Calm - N/A   Clear
5:55 AM -18.4 °F - - N/A% 29.81 in 2.0 mi Calm Calm - N/A   Clear
6:15 AM -16.6 °F - - N/A% 29.82 in 9.0 mi Calm Calm - N/A   Clear
6:35 AM -16.6 °F - -29.2 °F 53% 29.83 in 1.8 mi Calm Calm - N/A   Clear
6:55 AM -16.6 °F - - N/A% 29.84 in 10.0 mi Calm Calm - N/A   Clear
7:15 AM -18.4 °F - - N/A% 29.85 in 2.5 mi Calm Calm - N/A   Clear
7:35 AM -20.2 °F - - N/A% 29.86 in 10.0 mi Calm Calm - N/A   Clear
7:55 AM -20.2 °F - - N/A% 29.87 in 10.0 mi Calm Calm - N/A   Clear
8:15 AM -20.2 °F - -20.2 °F 100% 29.88 in 3.0 mi Calm Calm - N/A   Partly Cloudy
8:35 AM -22.0 °F - - N/A% 29.89 in 10.0 mi Calm Calm - N/A   Mostly Cloudy
8:55 AM -20.2 °F - - N/A% 29.89 in 10.0 mi Calm Calm - N/A   Mostly Cloudy
9:15 AM -16.6 °F - - N/A% 29.89 in 10.0 mi Calm Calm - N/A   Scattered Clouds
9:35 AM -16.6 °F -26.8 °F - N/A% 29.89 in 10.0 mi East 3.5 mph - N/A   Scattered Clouds
9:55 AM -14.8 °F - - N/A% 29.89 in 10.0 mi Calm Calm - N/A   Overcast
10:15 AM -11.2 °F - -25.6 °F 49% 29.90 in 10.0 mi Calm Calm - N/A   Mostly Cloudy
10:55 AM -7.6 °F - -20.2 °F 54% 29.89 in 10.0 mi Calm Calm - N/A   Clear
11:15 AM -4.0 °F - -16.6 °F 55% 29.88 in 10.0 mi Calm Calm - N/A   Clear
11:35 AM -5.8 °F - -20.2 °F 50% 29.86 in 10.0 mi Calm Calm - N/A   Clear
11:55 AM -4.0 °F - -16.6 °F 55% 29.85 in 10.0 mi Calm Calm - N/A   Clear
12:15 PM -2.2 °F - -14.8 °F 55% 29.84 in 10.0 mi Calm Calm - N/A   Clear
12:35 PM -0.4 °F - -13.0 °F 55% 29.82 in 10.0 mi Calm Calm - N/A   Clear
12:55 PM 1.4 °F - -13.0 °F 51% 29.81 in 10.0 mi Calm Calm - N/A   Clear
1:15 PM 3.2 °F - -11.2 °F 51% 29.81 in 10.0 mi Calm Calm - N/A   Clear
1:35 PM 5.0 °F - -7.6 °F 56% 29.80 in 10.0 mi Calm Calm - N/A   Clear
1:55 PM 5.0 °F - -9.4 °F 52% 29.80 in 10.0 mi Calm Calm - N/A   Clear
2:15 PM 5.0 °F - -11.2 °F 47% 29.80 in 10.0 mi Calm Calm - N/A   Clear
2:35 PM 5.0 °F - -7.6 °F 56% 29.80 in 10.0 mi Calm Calm - N/A   Clear
3:15 PM 6.8 °F - -14.8 °F 37% 29.80 in 10.0 mi Calm Calm - N/A   Clear
3:35 PM 6.8 °F - -7.6 °F 52% 29.80 in 10.0 mi Calm Calm - N/A   Clear
3:55 PM 6.8 °F -0.1 °F -11.2 °F 44% 29.80 in 10.0 mi SE 3.5 mph - N/A   Clear
4:15 PM 6.8 °F -0.1 °F -16.6 °F 34% 29.80 in 10.0 mi South 3.5 mph - N/A   Clear
4:35 PM 6.8 °F - -22.0 °F 26% 29.81 in 10.0 mi Calm Calm - N/A   Clear
4:55 PM 6.8 °F - -25.6 °F 21% 29.80 in 10.0 mi Calm Calm - N/A   Clear
5:15 PM -0.4 °F -10.4 °F -29.2 °F 25% 29.81 in 10.0 mi South 4.6 mph - N/A   Clear
5:35 PM -2.2 °F -10.4 °F -29.2 °F 27% 29.81 in 10.0 mi South 3.5 mph - N/A   Clear
6:15 PM -7.6 °F - -29.2 °F 34% 29.82 in 10.0 mi Calm Calm - N/A   Clear
6:35 PM -7.6 °F - -25.6 °F 41% 29.82 in 10.0 mi Calm Calm - N/A   Clear
6:55 PM -5.8 °F - -22.0 °F 46% 29.83 in 10.0 mi Calm Calm - N/A   Clear
7:15 PM -7.6 °F -18.8 °F -25.6 °F 41% 29.83 in 10.0 mi NE 4.6 mph - N/A   Clear
7:35 PM -5.8 °F -14.5 °F -18.4 °F 55% 29.84 in 10.0 mi ENE 3.5 mph - N/A   Clear
7:55 PM -9.4 °F -24.3 °F -29.2 °F 37% 29.85 in 10.0 mi ENE 6.9 mph - N/A   Clear
8:15 PM -11.2 °F -20.6 °F -29.2 °F 41% 29.85 in 10.0 mi NE 3.5 mph - N/A   Clear
8:35 PM -9.4 °F - -18.4 °F 65% 29.85 in 10.0 mi Calm Calm - N/A   Clear
8:55 PM -11.2 °F - - N/A% 29.85 in 10.0 mi Calm Calm - N/A   Partly Cloudy
9:15 PM -13.0 °F - -25.6 °F 53% 29.86 in 10.0 mi Calm Calm - N/A   Partly Cloudy
9:35 PM -14.8 °F - -27.4 °F 53% 29.86 in 10.0 mi Calm Calm - N/A   Partly Cloudy
9:55 PM -14.8 °F -27.2 °F -27.4 °F 53% 29.86 in 10.0 mi ENE 4.6 mph - N/A   Clear
10:15 PM -16.6 °F - - N/A% 29.86 in 10.0 mi Calm Calm - N/A   Clear
10:35 PM -16.6 °F - -29.2 °F 53% 29.87 in 10.0 mi Calm Calm - N/A   Clear
10:55 PM -16.6 °F -29.3 °F -29.2 °F 53% 29.87 in 10.0 mi ENE 4.6 mph - N/A   Scattered Clouds
11:15 PM -16.6 °F - - N/A% 29.88 in 6.0 mi Calm Calm - N/A   Mostly Cloudy
11:55 PM -20.2 °F - - N/A% 29.89 in 10.0 mi Calm Calm - N/A   Overcast